Regional Weather Roundup
Issued by NWS Memphis, TN

Home | Current Version | Previous Version | Text Only | Print | Product List | Glossary On
Versions: 1 2 3 4 5 6 7 8 9 10 11 12 13 14 15 16 17 18 19 20 21 22 23 24 25 26 27 28 29 30 31 32 33 34 35 36 37 38 39 40 41 42 43 44 45 46 47 48 49 50
000
ASUS44 KMEG 030110
RWRMEG
MEMPHIS CWA HOURLY WEATHER ROUNDUP
NATIONAL WEATHER SERVICE MEMPHIS TN
800 PM CDT SUN AUG 02 2015

...WEST TENNESSEE...

CITY           SKY/WX    TMP DP  RH WIND       PRES   REMARKS
MEMPHIS INTL   PTCLDY    86  69  56 CALM      29.89F HX  90
NWS MEMPHIS      N/A     82 N/A N/A MISG        N/A
JACKSON        MOCLDY    82  74  76 CALM      29.90F
LEXINGTON      CLEAR     75  70  83 CALM      29.91S
DYERSBURG        N/A    N/A N/A N/A MISG        N/A
PARIS          CLEAR     79  72  78 CALM      29.92S


...EASTERN ARKANSAS...

CITY           SKY/WX    TMP DP  RH WIND       PRES   REMARKS
JONESBORO      PTCLDY    85  68  56 S5        29.88S
WEST MEMPHIS   PTCLDY    83  73  72 CALM      29.88S
BATESVILLE     CLEAR     88  70  55 SE3       29.89R HX  92
NEWPORT        CLEAR     86  71  60 S6        29.89S HX  91
WALNUT RIDGE   PTCLDY    86  66  51 S7        29.87S
BLYTHEVILLE    MOCLDY    85  74  69 SW3       29.88F HX  92
SEARCY         CLEAR     85  72  65 CALM      29.89S HX  91
STUTTGART      CLEAR     90  66  45 MISG      29.89S HX  92
PINE BLUFF     CLEAR     85  71  63 E3        29.89R HX  90
MONTICELLO     CLEAR     86  69  56 CALM      29.89R HX  90


...NORTH MISSISSIPPI...

CITY           SKY/WX    TMP DP  RH WIND       PRES   REMARKS
TUPELO         CLEAR     84  68  58 N5        29.89S
OLIVE BRANCH   PTCLDY    82  73  74 CALM      29.90F
TUNICA         CLEAR     82  72  69 CALM      29.90S
CLARKSDALE     CLEAR     84  72  65 CALM      29.89S
CORINTH        CLEAR     79  66  65 CALM      29.90S
GREENWOOD      PTCLDY    83  71  67 CALM      29.87S
COLUMBUS       CLEAR     84  69  59 N3        29.87S
STARKVILLE     FAIR      81  64  57 N3        29.89R
GOLDEN TRIANGL CLEAR     84  64  51 N6        29.88S


...SOUTHEAST MISSOURI...

CITY           SKY/WX    TMP DP  RH WIND       PRES   REMARKS
WEST PLAINS    CLEAR     83  69  62 SW3       29.92F
POPLAR BLUFF   CLEAR     84  73  69 S5        29.86S HX  90
CAPE GIRARDEAU CLEAR     82  72  71 S5        29.86F


...NORTHWEST ALABAMA...

CITY           SKY/WX    TMP DP  RH WIND       PRES   REMARKS
MUSCLE SHOALS  MOCLDY    82  58  43 CALM      29.92R


...MIDDLE TENNESSEE...

CITY           SKY/WX    TMP DP  RH WIND       PRES   REMARKS
NASHVILLE      PTCLDY    83  55  38 W3        29.92S
CLARKSVILLE    CLEAR     81  64  56 CALM      29.91S
COLUMBIA       CLEAR     82  64  54 CALM      29.92R


...WESTERN KENTUCKY...

CITY           SKY/WX    TMP DP  RH WIND       PRES   REMARKS
PADUCAH        CLEAR     82  72  71 S5        29.87F
FORT CAMPBELL  CLEAR     80  66  61 SW3       29.91F


...CENTRAL ARKANSAS...

CITY           SKY/WX    TMP DP  RH WIND       PRES   REMARKS
LITTLE ROCK    PTCLDY    89  67  47 SE7       29.88S HX  92


SKY/WX REPORTED AS FAIR MEANS FEW OR NO CLOUDS BELOW
12 THOUSAND FEET.



USA.gov is the U.S. government's official web portal to all federal, state and local government web resources and services.